Terminal Aerodrome Forecast
Issued by NWS Portland, OR

Home | Current Version | Previous Version | Text Only | Print | Product List | Glossary On
Versions: 1 2 3 4 5 6 7 8 9 10 11 12 13 14 15 16 17 18 19 20 21 22 23 24 25 26 27 28
000
FTUS46 KPQR 131502 AAA
TAFSLE
TAF AMD
KSLE 131502Z 1315/1412 25005KT P6SM VCTS SCT070CB BKN150
     FM132100 30009KT P6SM VCTS SCT035 BKN060CB BKN100
     FM140500 28003KT P6SM SCT150=

USA.gov is the U.S. government's official web portal to all federal, state and local government web resources and services.